Satellite: NOAA-11 Catalog number: 19531 Epoch time: 13234.49643609 Element set: 481 Inclination: 098.7075 deg RA of node: 315.9574 deg Eccentricity: 0.0012201 Arg of perigee: 075.3868 deg Mean anomaly: 355.7613 deg Mean motion: 14.15025602 rev/day Decay rate: 4.6e-07 rev/day^2 Epoch rev: 28550 Checksum: 298
Satellite: NOAA-12 Catalog number: 21263 Epoch time: 13234.52801706 Element set: 947 Inclination: 098.6945 deg RA of node: 259.3785 deg Eccentricity: 0.0014164 Arg of perigee: 031.7954 deg Mean anomaly: 131.4162 deg Mean motion: 14.25582444 rev/day Decay rate: 2.3e-07 rev/day^2 Epoch rev: 15800 Checksum: 291
Satellite: MET-3/5 Catalog number: 21655 Epoch time: 13233.73386461 Element set: 765 Inclination: 082.5561 deg RA of node: 207.9782 deg Eccentricity: 0.0012455 Arg of perigee: 330.7638 deg Mean anomaly: 029.2786 deg Mean motion: 13.17043708 rev/day Decay rate: 4.30e-06 rev/day^2 Epoch rev: 5856 Checksum: 313
Satellite: MET-2/21 Catalog number: 22782 Epoch time: 13234.80577946 Element set: 824 Inclination: 082.5479 deg RA of node: 050.0557 deg Eccentricity: 0.0022624 Arg of perigee: 025.8175 deg Mean anomaly: 103.7494 deg Mean motion: 13.83710179 rev/day Decay rate: 3.1e-07 rev/day^2 Epoch rev: 885 Checksum: 304
Satellite: OKEAN-4 Catalog number: 23317 Epoch time: 13234.80414464 Element set: 302 Inclination: 082.5420 deg RA of node: 347.4354 deg Eccentricity: 0.0020817 Arg of perigee: 010.4490 deg Mean anomaly: 135.6057 deg Mean motion: 14.84596824 rev/day Decay rate: 8.54e-06 rev/day^2 Epoch rev: 1882 Checksum: 280
Satellite: NOAA-14 Catalog number: 23455 Epoch time: 13234.46392675 Element set: 425 Inclination: 098.8001 deg RA of node: 317.8922 deg Eccentricity: 0.0010043 Arg of perigee: 164.2456 deg Mean anomaly: 327.9812 deg Mean motion: 14.13917369 rev/day Decay rate: 3.2e-07 rev/day^2 Epoch rev: 96173 Checksum: 302
Satellite: NOAA-15 Catalog number: 25338 Epoch time: 13234.50640669 Element set: 846 Inclination: 098.7304 deg RA of node: 224.3681 deg Eccentricity: 0.0009491 Arg of perigee: 297.5747 deg Mean anomaly: 208.5420 deg Mean motion: 14.25257327 rev/day Decay rate: 1.25e-06 rev/day^2 Epoch rev: 79429 Checksum: 323
Satellite: RESURS Catalog number: 25394 Epoch time: 13234.12607920 Element set: 450 Inclination: 098.3694 deg RA of node: 206.8262 deg Eccentricity: 0.0002480 Arg of perigee: 078.7132 deg Mean anomaly: 051.9096 deg Mean motion: 14.24334067 rev/day Decay rate: -2.0e-08 rev/day^2 Epoch rev: 78574 Checksum: 288
Satellite: FENGYUN1 Catalog number: 25730 Epoch time: 13233.85628706 Element set: 945 Inclination: 098.8830 deg RA of node: 192.5767 deg Eccentricity: 0.0024308 Arg of perigee: 222.8925 deg Mean anomaly: 170.6745 deg Mean motion: 14.10606697 rev/day Decay rate: 7.22e-06 rev/day^2 Epoch rev: 73530 Checksum: 318
Satellite: OKEAN-0 Catalog number: 25860 Epoch time: 13233.99532168 Element set: 26 Inclination: 097.9978 deg RA of node: 195.5893 deg Eccentricity: 0.0000790 Arg of perigee: 091.4555 deg Mean anomaly: 310.4192 deg Mean motion: 14.74672874 rev/day Decay rate: 3.97e-06 rev/day^2 Epoch rev: 75805 Checksum: 342
Satellite: NOAA-16 Catalog number: 26536 Epoch time: 13234.48993204 Element set: 334 Inclination: 099.0360 deg RA of node: 287.8925 deg Eccentricity: 0.0009553 Arg of perigee: 311.1433 deg Mean anomaly: 161.3104 deg Mean motion: 14.12908121 rev/day Decay rate: 1.53e-06 rev/day^2 Epoch rev: 66593 Checksum: 290
Satellite: NOAA-17 Catalog number: 27453 Epoch time: 13234.52825986 Element set: 243 Inclination: 098.3133 deg RA of node: 245.0926 deg Eccentricity: 0.0010907 Arg of perigee: 336.4779 deg Mean anomaly: 175.0752 deg Mean motion: 14.24612591 rev/day Decay rate: 9.2e-07 rev/day^2 Epoch rev: 58016 Checksum: 311
Satellite: NOAA-18 Catalog number: 28654 Epoch time: 13234.49761574 Element set: 730 Inclination: 099.1074 deg RA of node: 203.6908 deg Eccentricity: 0.0014698 Arg of perigee: 027.0372 deg Mean anomaly: 120.3756 deg Mean motion: 14.11852695 rev/day Decay rate: 2.12e-06 rev/day^2 Epoch rev: 42541 Checksum: 304
Satellite: NOAA-19 Catalog number: 33591 Epoch time: 13234.52400319 Element set: 911 Inclination: 098.9068 deg RA of node: 176.0780 deg Eccentricity: 0.0013117 Arg of perigee: 240.2050 deg Mean anomaly: 228.4265 deg Mean motion: 14.11539997 rev/day Decay rate: 1.69e-06 rev/day^2 Epoch rev: 23385 Checksum: 299
/EX SB KEPS @ AMSAT $ORB13234.M Orbital Elements 13234.MISC
HR AMSAT ORBITAL ELEMENTS FOR MANNED AND MISCELLANEOUS SATELLITES FROM WA5QGD FORT WORTH,TX August 22, 2013 BID: ORB13234.M TO ALL RADIO AMATEURS BT
Satellite: HUBBLE Catalog number: 20580 Epoch time: 13234.17347571 Element set: 309 Inclination: 028.4694 deg RA of node: 200.1786 deg Eccentricity: 0.0003153 Arg of perigee: 338.6351 deg Mean anomaly: 139.7764 deg Mean motion: 15.03854450 rev/day Decay rate: 1.704e-05 rev/day^2 Epoch rev: 7964 Checksum: 291
Satellite: ISS Catalog number: 25544 Epoch time: 13234.90012823 Element set: 443 Inclination: 051.6511 deg RA of node: 137.7722 deg Eccentricity: 0.0004131 Arg of perigee: 349.4484 deg Mean anomaly: 050.0126 deg Mean motion: 15.50456994 rev/day Decay rate: 1.4318e-04 rev/day^2 Epoch rev: 84505 Checksum: 270
Satellite: CO-58 Catalog number: 28895 Epoch time: 13234.78061255 Element set: 553 Inclination: 097.8624 deg RA of node: 086.8306 deg Eccentricity: 0.0016672 Arg of perigee: 228.4549 deg Mean anomaly: 131.5223 deg Mean motion: 14.61202967 rev/day Decay rate: 5.14e-06 rev/day^2 Epoch rev: 41666 Checksum: 326
Satellite: FALCON Catalog number: 30776 Epoch time: 13234.16642742 Element set: 679 Inclination: 035.4303 deg RA of node: 157.0914 deg Eccentricity: 0.0001866 Arg of perigee: 214.9507 deg Mean anomaly: 286.2938 deg Mean motion: 15.11199501 rev/day Decay rate: 5.569e-05 rev/day^2 Epoch rev: 35540 Checksum: 305
Satellite: MAST Catalog number: 31126 Epoch time: 13234.03876753 Element set: 833 Inclination: 097.8865 deg RA of node: 226.2211 deg Eccentricity: 0.0092743 Arg of perigee: 206.5248 deg Mean anomaly: 185.4899 deg Mean motion: 14.54648654 rev/day Decay rate: 3.40e-06 rev/day^2 Epoch rev: 33689 Checksum: 326
Satellite: CAPE1 Catalog number: 31130 Epoch time: 13233.71754713 Element set: 835 Inclination: 097.9041 deg RA of node: 222.2998 deg Eccentricity: 0.0099657 Arg of perigee: 223.7728 deg Mean anomaly: 135.5539 deg Mean motion: 14.53589287 rev/day Decay rate: 4.55e-06 rev/day^2 Epoch rev: 33629 Checksum: 332
Satellite: COMPASS Catalog number: 32787 Epoch time: 13234.20952149 Element set: 709 Inclination: 097.7461 deg RA of node: 291.0514 deg Eccentricity: 0.0016121 Arg of perigee: 088.6129 deg Mean anomaly: 271.6933 deg Mean motion: 14.85764586 rev/day Decay rate: 2.955e-05 rev/day^2 Epoch rev: 28776 Checksum: 333
Satellite: AAUSAT2 Catalog number: 32788 Epoch time: 13234.12979810 Element set: 691 Inclination: 097.7470 deg RA of node: 291.6572 deg Eccentricity: 0.0015618 Arg of perigee: 088.2103 deg Mean anomaly: 272.0901 deg Mean motion: 14.86250124 rev/day Decay rate: 2.705e-05 rev/day^2 Epoch rev: 28779 Checksum: 314
Satellite: DO-64 Catalog number: 32789 Epoch time: 13234.17592981 Element set: 723 Inclination: 097.7627 deg RA of node: 295.8774 deg Eccentricity: 0.0014982 Arg of perigee: 081.3522 deg Mean anomaly: 338.7941 deg Mean motion: 14.89068744 rev/day Decay rate: 5.521e-05 rev/day^2 Epoch rev: 28794 Checksum: 369
Satellite: CO-66 Catalog number: 32791 Epoch time: 13234.15625731 Element set: 687 Inclination: 097.7462 deg RA of node: 290.2744 deg Eccentricity: 0.0016549 Arg of perigee: 090.6406 deg Mean anomaly: 325.8020 deg Mean motion: 14.84856670 rev/day Decay rate: 1.637e-05 rev/day^2 Epoch rev: 28766 Checksum: 335
Satellite: RS-30 Catalog number: 32953 Epoch time: 13234.86527937 Element set: 145 Inclination: 082.5008 deg RA of node: 026.7167 deg Eccentricity: 0.0019675 Arg of perigee: 087.3845 deg Mean anomaly: 272.9485 deg Mean motion: 12.43036345 rev/day Decay rate: 1.0e-07 rev/day^2 Epoch rev: 23819 Checksum: 313
Satellite: METEOR-M Catalog number: 35865 Epoch time: 13234.79473582 Element set: 740 Inclination: 098.5965 deg RA of node: 285.5622 deg Eccentricity: 0.0001579 Arg of perigee: 237.7279 deg Mean anomaly: 122.3744 deg Mean motion: 14.21891429 rev/day Decay rate: -1.3e-07 rev/day^2 Epoch rev: 20393 Checksum: 324
Satellite: RS-38 Catalog number: 35869 Epoch time: 13234.67575270 Element set: 692 Inclination: 098.5907 deg RA of node: 285.3427 deg Eccentricity: 0.0003761 Arg of perigee: 240.0662 deg Mean anomaly: 120.0141 deg Mean motion: 14.22141035 rev/day Decay rate: 1.2e-07 rev/day^2 Epoch rev: 20394 Checksum: 281
Satellite: JUGNU Catalog number: 37839 Epoch time: 13234.15191299 Element set: 446 Inclination: 019.9604 deg RA of node: 267.0900 deg Eccentricity: 0.0018909 Arg of perigee: 290.5724 deg Mean anomaly: 119.7920 deg Mean motion: 14.12174274 rev/day Decay rate: 3.90e-06 rev/day^2 Epoch rev: 9623 Checksum: 306
Satellite: SRMSAT Catalog number: 37841 Epoch time: 13234.15481456 Element set: 447 Inclination: 019.9710 deg RA of node: 280.4344 deg Eccentricity: 0.0011668 Arg of perigee: 241.7304 deg Mean anomaly: 146.9831 deg Mean motion: 14.10241474 rev/day Decay rate: 3.73e-06 rev/day^2 Epoch rev: 9609 Checksum: 286
Satellite: RAX-2 Catalog number: 37853 Epoch time: 13234.26379943 Element set: 574 Inclination: 101.7018 deg RA of node: 118.5350 deg Eccentricity: 0.0233453 Arg of perigee: 197.9065 deg Mean anomaly: 311.2422 deg Mean motion: 14.84110251 rev/day Decay rate: 3.366e-05 rev/day^2 Epoch rev: 9824 Checksum: 290
